Location: Nelson
(41.2830°S, 173.2830°E)
Time: 06:17:01
(UTC+12:00)

CZ-4B DEB - Pass Details

Date: 14 May 2021
Orbit: 841 x 860 km, 99.1° (Epoch: 16 June)

Event Time Altitude Azimuth Distance (km) Brightness Sun altitude
Rises 18:22:28 0° 162° (SSE) 3,445 7.1 -12.1°
Reaches altitude 10° 18:24:55 10° 158° (SSE) 2,500 6.3 -12.5°
Maximum altitude 18:30:22 57° 79° (E) 995 4.3 -13.5°
Drops below altitude 10° 18:35:45 10° 360° (N) 2,462 6.8 -14.5°
Sets 18:38:08 0° 356° (N) 3,388 7.6 -14.9°
